VVHU700 KNDZ-KNDZ

Flight info

Callsign VVHU700
Flight time N/A
Altitude 9000
Route VFR
Aircraft H60/L-DV/C

Departure

Time 2026-04-13 17:20
Airport Whiting Field Naval Air Station South Airport (KNDZ)

Arrival

Time N/A
Airport Whiting Field Naval Air Station South Airport (KNDZ)
Time Latitude Longitude Altitude Speed Heading
2026-04-13 17:14 30.70166 -87.01764 178 ft 0 kts 185°
2026-04-13 17:19 30.70151 -87.01762 216 ft 2 kts 179°
2026-04-13 17:19 30.69986 -87.01778 465 ft 69 kts 176°
2026-04-13 17:20 30.69369 -87.01402 1062 ft 120 kts 134°
2026-04-13 17:20 30.68627 -87.00817 691 ft 136 kts 146°
2026-04-13 17:20 30.67847 -87.00237 758 ft 129 kts 147°
2026-04-13 17:20 30.67069 -86.99691 764 ft 130 kts 149°
2026-04-13 17:21 30.66284 -86.99174 759 ft 130 kts 149°
2026-04-13 17:21 30.65528 -86.98641 771 ft 130 kts 143°
2026-04-13 17:21 30.64880 -86.97860 761 ft 134 kts 126°
2026-04-13 17:21 30.64422 -86.97009 768 ft 128 kts 98°
2026-04-13 17:22 30.64303 -86.95945 762 ft 136 kts 101°
2026-04-13 17:22 30.64204 -86.94828 771 ft 130 kts 101°
2026-04-13 17:22 30.64122 -86.93753 771 ft 134 kts 101°
2026-04-13 17:22 30.64069 -86.93004 756 ft 143 kts 101°
2026-04-13 17:23 30.64008 -86.91876 768 ft 137 kts 101°
2026-04-13 17:23 30.63935 -86.90760 761 ft 140 kts 101°
2026-04-13 17:23 30.63847 -86.89626 759 ft 146 kts 100°
2026-04-13 17:23 30.63433 -86.88716 766 ft 122 kts 140°
2026-04-13 17:24 30.62624 -86.88558 768 ft 127 kts 174°
2026-04-13 17:24 30.61744 -86.88453 776 ft 127 kts 174°
2026-04-13 17:24 30.60875 -86.88335 778 ft 123 kts 174°
2026-04-13 17:24 30.60003 -86.88271 784 ft 125 kts 174°
2026-04-13 17:25 30.59118 -86.88171 785 ft 131 kts 174°
2026-04-13 17:25 30.58256 -86.88085 779 ft 122 kts 174°
2026-04-13 17:25 30.57398 -86.87996 778 ft 129 kts 174°
2026-04-13 17:25 30.56502 -86.87925 783 ft 127 kts 174°
2026-04-13 17:26 30.55644 -86.87861 778 ft 124 kts 174°
2026-04-13 17:26 30.54777 -86.87765 792 ft 130 kts 174°
2026-04-13 17:26 30.53874 -86.87696 774 ft 133 kts 174°
2026-04-13 17:26 30.52993 -86.87600 781 ft 129 kts 174°
2026-04-13 17:27 30.51220 -86.87426 779 ft 133 kts 174°
2026-04-13 17:27 30.50280 -86.87326 787 ft 126 kts 174°
2026-04-13 17:27 30.49361 -86.87203 784 ft 132 kts 174°
2026-04-13 17:28 30.48482 -86.87073 783 ft 124 kts 174°
2026-04-13 17:28 30.47634 -86.86961 789 ft 119 kts 174°
2026-04-13 17:28 30.46782 -86.86858 767 ft 130 kts 174°
2026-04-13 17:28 30.45902 -86.86757 800 ft 114 kts 179°
2026-04-13 17:29 30.45046 -86.86739 785 ft 130 kts 179°
2026-04-13 17:29 30.44182 -86.86752 782 ft 117 kts 179°
2026-04-13 17:29 30.43320 -86.86744 770 ft 129 kts 179°
2026-04-13 17:29 30.42445 -86.86724 781 ft 125 kts 179°
2026-04-13 17:30 30.41590 -86.86701 789 ft 129 kts 179°
2026-04-13 17:30 30.40686 -86.86699 779 ft 124 kts 179°
2026-04-13 17:30 30.39829 -86.86701 782 ft 121 kts 179°
2026-04-13 17:30 30.38939 -86.86703 779 ft 132 kts 179°
2026-04-13 17:31 30.38034 -86.86720 783 ft 130 kts 179°
2026-04-13 17:31 30.37132 -86.86722 783 ft 134 kts 179°
2026-04-13 17:31 30.36161 -86.86758 775 ft 131 kts 174°
2026-04-13 17:31 30.35274 -86.86661 757 ft 136 kts 171°
2026-04-13 17:32 30.34346 -86.86549 756 ft 133 kts 171°
2026-04-13 17:32 30.33415 -86.86428 755 ft 135 kts 171°
2026-04-13 17:32 30.32494 -86.86318 759 ft 129 kts 171°
2026-04-13 17:32 30.31582 -86.86208 753 ft 137 kts 171°
2026-04-13 17:33 30.30665 -86.86094 764 ft 123 kts 168°
2026-04-13 17:33 30.29778 -86.85940 765 ft 136 kts 167°
2026-04-13 17:33 30.28882 -86.85698 752 ft 132 kts 167°
2026-04-13 17:33 30.27980 -86.85471 761 ft 132 kts 167°
2026-04-13 17:34 30.26201 -86.85025 759 ft 127 kts 167°
2026-04-13 17:34 30.25323 -86.84792 759 ft 131 kts 167°
2026-04-13 17:34 30.24368 -86.84754 746 ft 147 kts 187°
2026-04-13 17:35 30.23454 -86.85300 762 ft 135 kts 207°
2026-04-13 17:35 30.22657 -86.85847 754 ft 134 kts 207°
2026-04-13 17:35 30.21836 -86.86399 758 ft 135 kts 207°
2026-04-13 17:35 30.21036 -86.86961 755 ft 138 kts 207°
2026-04-13 17:36 30.20221 -86.87527 752 ft 133 kts 207°
2026-04-13 17:36 30.19415 -86.88094 757 ft 139 kts 207°
2026-04-13 17:36 30.18609 -86.88667 755 ft 137 kts 207°
2026-04-13 17:36 30.17793 -86.89233 750 ft 138 kts 207°
2026-04-13 17:37 30.16953 -86.89778 749 ft 135 kts 207°
2026-04-13 17:37 30.16124 -86.90319 747 ft 138 kts 207°
2026-04-13 17:37 30.15310 -86.90869 756 ft 138 kts 207°
2026-04-13 17:37 30.14476 -86.91418 744 ft 136 kts 207°
2026-04-13 17:38 30.13657 -86.91972 746 ft 141 kts 207°
2026-04-13 17:38 30.12837 -86.92509 756 ft 137 kts 207°
2026-04-13 17:38 30.12013 -86.93058 777 ft 135 kts 207°
2026-04-13 17:38 30.11189 -86.93603 735 ft 135 kts 207°
2026-04-13 17:39 30.10384 -86.94148 735 ft 136 kts 207°
2026-04-13 17:39 30.09582 -86.94697 750 ft 133 kts 207°
2026-04-13 17:39 30.08758 -86.95249 755 ft 134 kts 207°
2026-04-13 17:39 30.07937 -86.95793 739 ft 137 kts 207°
2026-04-13 17:40 30.07103 -86.96333 745 ft 136 kts 207°
2026-04-13 17:40 30.06283 -86.96875 749 ft 135 kts 207°
2026-04-13 17:40 30.05477 -86.97432 749 ft 134 kts 207°
2026-04-13 17:40 30.04660 -86.97986 750 ft 131 kts 207°
2026-04-13 17:41 30.03848 -86.98524 752 ft 134 kts 207°
2026-04-13 17:41 30.03019 -86.99070 746 ft 139 kts 207°
2026-04-13 17:41 30.02182 -86.99621 739 ft 137 kts 207°
2026-04-13 17:41 30.01345 -87.00170 740 ft 135 kts 207°
2026-04-13 17:42 30.00528 -87.00703 737 ft 135 kts 207°
2026-04-13 17:42 29.99701 -87.01243 736 ft 135 kts 207°
2026-04-13 17:42 29.98900 -87.01786 738 ft 138 kts 207°
2026-04-13 17:42 29.98089 -87.02326 741 ft 135 kts 207°
2026-04-13 17:43 29.97271 -87.02872 734 ft 138 kts 207°
2026-04-13 17:43 29.96448 -87.03412 731 ft 135 kts 207°
2026-04-13 17:43 29.95633 -87.03970 736 ft 130 kts 207°
2026-04-13 17:43 29.94826 -87.04525 736 ft 140 kts 207°
2026-04-13 17:44 29.94006 -87.05080 729 ft 138 kts 207°
2026-04-13 17:44 29.93185 -87.05645 730 ft 137 kts 207°
2026-04-13 17:44 29.92351 -87.06196 734 ft 136 kts 207°
2026-04-13 17:44 29.91532 -87.06753 743 ft 137 kts 207°
2026-04-13 17:45 29.90697 -87.07315 734 ft 140 kts 207°
2026-04-13 17:45 29.89869 -87.07876 732 ft 139 kts 207°
2026-04-13 17:45 29.89030 -87.08428 726 ft 139 kts 207°
2026-04-13 17:45 29.88212 -87.08988 735 ft 136 kts 207°
2026-04-13 17:46 29.87390 -87.09548 736 ft 134 kts 207°
2026-04-13 17:46 29.86573 -87.10085 730 ft 133 kts 207°
2026-04-13 17:46 29.85767 -87.10630 726 ft 131 kts 207°
2026-04-13 17:46 29.84954 -87.11190 728 ft 129 kts 207°
2026-04-13 17:47 29.84150 -87.11738 729 ft 138 kts 207°
2026-04-13 17:47 29.83324 -87.12289 734 ft 139 kts 207°
2026-04-13 17:47 29.82499 -87.12840 735 ft 140 kts 207°
2026-04-13 17:47 29.81670 -87.13388 726 ft 139 kts 207°
2026-04-13 17:48 29.80844 -87.13927 728 ft 139 kts 207°
2026-04-13 17:48 29.80006 -87.14461 731 ft 134 kts 207°
2026-04-13 17:48 29.79196 -87.14990 733 ft 133 kts 207°
2026-04-13 17:48 29.78373 -87.15573 731 ft 138 kts 207°
2026-04-13 17:49 29.77536 -87.16134 724 ft 143 kts 207°
2026-04-13 17:49 29.76728 -87.16701 729 ft 137 kts 207°
2026-04-13 17:49 29.75914 -87.17263 731 ft 135 kts 207°
2026-04-13 17:49 29.75105 -87.17828 731 ft 136 kts 207°
2026-04-13 17:50 29.74288 -87.18362 748 ft 135 kts 207°
2026-04-13 17:50 29.73456 -87.18921 728 ft 139 kts 207°
2026-04-13 17:50 29.72626 -87.19455 762 ft 140 kts 207°
2026-04-13 17:50 29.71796 -87.19991 741 ft 135 kts 207°
2026-04-13 17:51 29.70975 -87.20550 717 ft 134 kts 207°
2026-04-13 17:51 29.70151 -87.21079 716 ft 133 kts 205°
2026-04-13 17:51 29.69341 -87.21580 705 ft 136 kts 205°
2026-04-13 17:51 29.68513 -87.22095 794 ft 137 kts 205°
2026-04-13 17:52 29.67668 -87.22632 945 ft 138 kts 205°
2026-04-13 17:52 29.66812 -87.23148 1087 ft 138 kts 205°
2026-04-13 17:52 29.65976 -87.23690 1094 ft 138 kts 205°
2026-04-13 17:52 29.65114 -87.24151 615 ft 142 kts 191°
2026-04-13 17:53 29.64503 -87.24397 505 ft 139 kts 188°
2026-04-13 17:53 29.63303 -87.24519 475 ft 125 kts 171°
2026-04-13 17:53 29.62575 -87.24007 509 ft 126 kts 139°
2026-04-13 17:53 29.62132 -87.23127 523 ft 133 kts 121°
2026-04-13 17:54 29.61664 -87.22174 514 ft 135 kts 121°
2026-04-13 17:54 29.61259 -87.21200 510 ft 139 kts 116°
2026-04-13 17:54 29.60900 -87.20193 516 ft 134 kts 115°
2026-04-13 17:54 29.60565 -87.19333 581 ft 92 kts 116°
2026-04-13 17:55 29.60429 -87.18829 583 ft 44 kts 110°
2026-04-13 17:55 29.60444 -87.18388 618 ft 95 kts 97°
2026-04-13 17:55 29.60549 -87.17504 619 ft 122 kts 86°
2026-04-13 17:55 29.60766 -87.16542 517 ft 118 kts 80°
2026-04-13 17:56 29.60903 -87.15780 360 ft 75 kts 80°
2026-04-13 17:56 29.60968 -87.15351 240 ft 32 kts 79°
2026-04-13 17:56 29.60987 -87.15236 235 ft 15 kts 79°
2026-04-13 17:56 29.61029 -87.14960 194 ft 50 kts 85°
2026-04-13 17:57 29.61004 -87.14563 198 ft 50 kts 95°
2026-04-13 17:57 29.60974 -87.14166 198 ft 47 kts 95°
2026-04-13 17:57 29.60948 -87.13873 202 ft 40 kts 95°
2026-04-13 17:57 29.60923 -87.13555 204 ft 40 kts 95°
2026-04-13 17:58 29.60902 -87.13360 250 ft 20 kts 99°
2026-04-13 17:58 29.60878 -87.13204 240 ft 20 kts 99°
2026-04-13 17:58 29.60857 -87.13044 242 ft 20 kts 99°
2026-04-13 17:58 29.60832 -87.12888 243 ft 20 kts 99°
2026-04-13 17:59 29.60811 -87.12730 239 ft 20 kts 99°
2026-04-13 17:59 29.60789 -87.12572 236 ft 20 kts 99°
2026-04-13 17:59 29.60765 -87.12420 238 ft 11 kts 99°
2026-04-13 17:59 29.60761 -87.12432 213 ft 4 kts 99°
2026-04-13 18:00 29.60751 -87.12309 148 ft 36 kts 94°
2026-04-13 18:00 29.60783 -87.12114 106 ft 12 kts 108°
2026-04-13 18:00 29.60777 -87.12018 83 ft 13 kts 106°
2026-04-13 18:00 29.60749 -87.11905 76 ft 15 kts 106°
2026-04-13 18:01 29.60720 -87.11790 76 ft 15 kts 106°
2026-04-13 18:01 29.60692 -87.11675 76 ft 15 kts 106°
2026-04-13 18:01 29.60664 -87.11559 76 ft 15 kts 106°
2026-04-13 18:01 29.60635 -87.11444 76 ft 15 kts 106°
2026-04-13 18:02 29.60607 -87.11329 76 ft 15 kts 106°
2026-04-13 18:02 29.60579 -87.11213 76 ft 15 kts 106°
2026-04-13 18:02 29.60550 -87.11098 76 ft 15 kts 106°
2026-04-13 18:02 29.60522 -87.10983 74 ft 15 kts 106°
2026-04-13 18:03 29.60493 -87.10867 76 ft 15 kts 106°
2026-04-13 18:03 29.60465 -87.10752 74 ft 15 kts 106°
2026-04-13 18:03 29.60437 -87.10637 73 ft 15 kts 106°
2026-04-13 18:03 29.60408 -87.10521 74 ft 15 kts 106°
2026-04-13 18:04 29.60380 -87.10406 73 ft 15 kts 106°
2026-04-13 18:04 29.60352 -87.10290 74 ft 15 kts 106°
2026-04-13 18:04 29.60323 -87.10175 77 ft 15 kts 104°
2026-04-13 18:04 29.60294 -87.10057 94 ft 19 kts 102°
2026-04-13 18:05 29.60201 -87.10034 123 ft 28 kts 208°
2026-04-13 18:05 29.60075 -87.10503 307 ft 91 kts 243°
2026-04-13 18:05 29.59929 -87.11222 269 ft 93 kts 272°
2026-04-13 18:05 29.60020 -87.11965 269 ft 95 kts 276°
2026-04-13 18:06 29.60064 -87.12725 294 ft 105 kts 274°
2026-04-13 18:06 29.60106 -87.13652 494 ft 122 kts 271°
2026-04-13 18:06 29.60146 -87.14614 501 ft 124 kts 271°
2026-04-13 18:06 29.60194 -87.15612 482 ft 126 kts 271°
2026-04-13 18:07 29.60245 -87.16587 479 ft 119 kts 271°
2026-04-13 18:07 29.60292 -87.17545 478 ft 121 kts 271°
2026-04-13 18:07 29.60347 -87.18514 483 ft 119 kts 271°
2026-04-13 18:07 29.60389 -87.19473 483 ft 120 kts 271°
2026-04-13 18:08 29.60427 -87.20402 481 ft 116 kts 271°
2026-04-13 18:08 29.60480 -87.21339 484 ft 124 kts 271°
2026-04-13 18:08 29.60542 -87.22297 486 ft 122 kts 271°
2026-04-13 18:08 29.60618 -87.23243 487 ft 120 kts 271°
2026-04-13 18:09 29.60684 -87.24191 482 ft 121 kts 271°
2026-04-13 18:09 29.60771 -87.25153 486 ft 124 kts 271°
2026-04-13 18:09 29.60839 -87.26108 483 ft 124 kts 271°
2026-04-13 18:09 29.60916 -87.27068 481 ft 124 kts 271°
2026-04-13 18:10 29.60996 -87.28008 480 ft 115 kts 271°
2026-04-13 18:10 29.61040 -87.28922 479 ft 122 kts 271°
2026-04-13 18:10 29.61091 -87.29881 483 ft 121 kts 271°
2026-04-13 18:10 29.61155 -87.30794 482 ft 114 kts 271°
2026-04-13 18:11 29.61213 -87.31720 477 ft 123 kts 271°
2026-04-13 18:11 29.61260 -87.32355 479 ft 118 kts 271°
2026-04-13 18:11 29.61330 -87.33631 484 ft 118 kts 271°
2026-04-13 18:11 29.61353 -87.34258 476 ft 120 kts 271°
2026-04-13 18:12 29.61416 -87.35211 467 ft 116 kts 271°
2026-04-13 18:12 29.61462 -87.36039 299 ft 85 kts 271°
2026-04-13 18:12 29.61508 -87.36584 180 ft 52 kts 270°
2026-04-13 18:12 29.61547 -87.36876 193 ft 30 kts 270°
2026-04-13 18:13 29.61576 -87.37117 204 ft 30 kts 267°
2026-04-13 18:13 29.61586 -87.37349 233 ft 21 kts 188°
2026-04-13 18:13 29.61512 -87.37351 449 ft 21 kts 178°
2026-04-13 18:13 29.61351 -87.37204 431 ft 39 kts 175°
2026-04-13 18:14 29.61003 -87.37156 432 ft 64 kts 174°
2026-04-13 18:14 29.60552 -87.37193 441 ft 66 kts 175°
2026-04-13 18:14 29.60081 -87.37270 435 ft 70 kts 175°
2026-04-13 18:14 29.59593 -87.37351 436 ft 71 kts 175°
2026-04-13 18:15 29.59115 -87.37385 429 ft 62 kts 152°
2026-04-13 18:15 29.58974 -87.36920 440 ft 74 kts 88°
2026-04-13 18:15 29.59029 -87.36333 437 ft 73 kts 90°
2026-04-13 18:15 29.59056 -87.35764 434 ft 72 kts 92°
2026-04-13 18:16 29.59072 -87.35199 428 ft 69 kts 75°
2026-04-13 18:16 29.59441 -87.34918 419 ft 82 kts
2026-04-13 18:16 29.60015 -87.35009 420 ft 84 kts
2026-04-13 18:16 29.60592 -87.35036 433 ft 83 kts
2026-04-13 18:17 29.61169 -87.35075 428 ft 83 kts
2026-04-13 18:17 29.61751 -87.35120 429 ft 85 kts
2026-04-13 18:17 29.62336 -87.35196 420 ft 87 kts 343°
2026-04-13 18:17 29.62530 -87.35877 442 ft 100 kts 263°
2026-04-13 18:18 29.62540 -87.36652 440 ft 95 kts 272°
2026-04-13 18:18 29.62594 -87.37394 429 ft 91 kts 272°
2026-04-13 18:18 29.62671 -87.38110 434 ft 90 kts 272°
2026-04-13 18:18 29.62659 -87.38792 407 ft 84 kts 233°
2026-04-13 18:19 29.62148 -87.38982 437 ft 77 kts 182°
2026-04-13 18:19 29.61631 -87.39059 431 ft 73 kts 182°
2026-04-13 18:19 29.61131 -87.39172 433 ft 74 kts 182°
2026-04-13 18:19 29.60797 -87.39248 428 ft 74 kts 182°